Location: Newark
(22.3060°N, 114.2134°E)
Time: 06:47:37
(UTC+00:00)

Vanguard 1 Rocket - Pass Details

Date: 09 August 2021
Orbit: 650 x 4226 km, 34.3° (Epoch: 23 September)

Event Time Altitude Azimuth Distance (km) Brightness Sun altitude
Exits shadow 20:11:53 10° 200° (SSW) 6,324 11.2 -23.5°
Reaches altitude 10° 20:12:01 10° 200° (SSW) 6,308 11.2 -23.5°
Maximum altitude 20:32:28 42° 136° (SE) 5,183 11.3 -19.3°
Drops below altitude 10° 20:54:57 10° 75° (ENE) 6,998 13.3 -14.6°
Sets 21:00:16 0° 69° (ENE) 7,706 14.2 -13.5°
